Regional Weather Roundup
Issued by NWS Jackson, KY

Home | Current Version | Previous Version | Graphics & Text | Print | Product List | Glossary On
Versions: 1 2 3 4 5 6 7 8 9 10 11 12 13 14 15 16 17 18 19 20 21 22 23 24 25 26 27 28 29 30 31 32 33 34 35 36 37 38 39 40 41 42 43 44 45 46 47 48 49 50
000
ASUS43 KJKL 241710
RWRJKL

EAST KENTUCKY HOURLY WEATHER ROUNDUP
NATIONAL WEATHER SERVICE JACKSON KY
100 PM EDT SUN JUL 24 2016

NOTE: "FAIR" INDICATES FEW OR NO CLOUDS BELOW 12,000 FEET WITH
NO SIGNIFICANT WEATHER AND/OR OBSTRUCTIONS TO VISIBILITY.

* THESE REPORTS ARE NOT UNDER NWS QUALITY CONTROL AND MAY NOT
  REPORT WEATHER SUCH AS PRECIPITATION AND FOG.

KYZ079-080-083-085-087-088-110-112-115-119-120-241800
...EASTERN KENTUCKY...

CITY           SKY/WX    TMP DP  RH WIND       PRES   REMARKS
JACKSON        SUNNY     88  74  63 VRB3      30.09S HX  96
LONDON         SUNNY     88  71  57 SW8       30.08S HX  94
SOMERSET*      MOSUNNY   86  70  58 S7        30.08S HX  90
MONTICELLO*    MOSUNNY  N/A N/A N/A N8        30.08F
WILLIAMSBURG*  SUNNY     88  73  62 SW5       30.08S HX  96
MIDDLESBORO*   SUNNY     87  73  64 SE5       30.09F HX  94
HARLAN APT*      N/A     88  72  58 CALM      30.10F HX  94
PIKE CO APT*     N/A     85  75  72 CALM      30.10S HX  94
BIG SANDY APT* MOSUNNY   87  73  62 SW3       30.09  HX  95
MOREHEAD APT*  SUNNY     88  75  66 W5        30.08F HX  97
ASHLAND*       MOSUNNY   91  75  59 SW3       30.02S HX 102
$$

KYZ035-036-041-042-044-050-067-078-099-241800
...CENTRAL KENTUCKY...

CITY           SKY/WX    TMP DP  RH WIND       PRES   REMARKS
MT STERLING*   CLOUDY    88  77  70 SW5       30.08S HX 100
FLEMING/MASON* PTSUNNY   92  74  55 S5        30.05F HX 101
DANVILLE*      MOSUNNY   88  72  58 SW7       30.07F HX  94
RICHMOND*      PTSUNNY   88  73  62 W6        30.06F HX  96
LEXINGTON      MOSUNNY   90  73  57 W8        30.05F HX  98
FRANKFORT      PTSUNNY   91  75  59 MISG      30.03F HX 101
LOUISVILLE     PTSUNNY   92  74  55 S10       30.01F HX 101
LEBANON*         N/A     88  73  62 SW3       30.06S HX  96
GLASGOW*       SUNNY     88  74  63 W6        30.05S HX  97
BOWLING GREEN  MOSUNNY   90  76  63 W8        30.04S HX 101
$$

KYZ091>093-OHZ055-061-077-WVZ005-015-034-035-042-241800
...SOUTHERN OHIO/WEST VIRGINIA...

CITY           SKY/WX    TMP DP  RH WIND       PRES   REMARKS
COVINGTON      MOSUNNY   91  74  57 S10       30.03F HX 100
COLUMBUS       PTSUNNY   89  73  59 W12       30.00F HX  97
DAYTON         PTSUNNY   88  73  61 SW12      30.03F HX  95
WILMINGTON     MOSUNNY   90  74  59 SW10      30.02F HX  99
HUNTINGTON       N/A     91  74  57 S6        30.05F HX 100
CHARLESTON       N/A     92  70  48 W7        30.06S HX  97
PINEVILLE*       N/A     91  69  49 MISG      30.15S HX  96
BECKLEY          N/A     86  66  51 CALM      30.15S
BLUEFIELD        N/A     85  66  53 VRB5      30.18S
LOGAN CO APT*    N/A     88  73  62 VRB5      30.09S HX  96
$$

VAZ002-007-008-TNZ017-027-036-066-071-241800
...SOUTHWEST VIRGINIA/EAST TENNESSEE...

CITY           SKY/WX    TMP DP  RH WIND       PRES   REMARKS
WISE*            N/A     88  59  37 CALM      30.18F
JONESVILLE*      N/A     86  72  62 CALM      30.12F HX  92
ABINGDON*        N/A     87  70  57 CALM      30.14F HX  92
BRISTOL        PTSUNNY   89  68  49 S5        30.10F HX  93
MORRISTOWN*    MOSUNNY   88  72  58 VRB5      30.08F HX  94
SEVIERVILLE*     N/A     90  70  51 N5        30.07S HX  95
KNOXVILLE      MOSUNNY   89  71  55 VRB7      30.07S HX  95
OAK RIDGE      SUNNY     86  72  62 VRB5      30.09S HX  92
CROSSVILLE     PTSUNNY   85  71  63 W7        30.13S HX  90
NASHVILLE      PTSUNNY   92  71  50 VRB5      30.04F HX  98
$$

...KEY TO REMARKS...
VSB - VISIBILITY IN MILES
WCI - WIND CHILL INDEX
HX  - HEAT INDEX

$$



USA.gov is the U.S. government's official web portal to all federal, state and local government web resources and services.